Regional Weather Roundup
Issued by NWS Wakefield, VA

Home | Current Version | Previous Version | Text Only | Print | Product List | Glossary Off
Versions: 1 2 3 4 5 6 7 8 9 10 11 12 13 14 15 16 17 18 19 20 21 22 23 24 25 26 27 28

000
ASUS41 KAKQ 171410
RWRAKQ

REGIONAL WEATHER ROUNDUP
NATIONAL WEATHER SERVICE WAKEFIELD VA
1000 AM EDT THU APR 17 2014

Note: "fair" indicates few or no clouds below 12,000 feet with no
significant weather and/or obstructions to visibility. * = Denotes
station may not report precipitation (e.g., rain,snow,etc.),
thunder or fog.

VAZ042-051-052>054-056-171500-
NORTHERN VIRGINIA

CITY           SKY/WX    TMP DP  RH WIND       PRES   REMARKS
WASH NATIONAL  PTSUNNY   49  30  48 E8        30.67R
DULLES         MOSUNNY   45  28  51 E7        30.64S
FORT BELVOIR   SUNNY     47  28  46 E8        30.66S
QUANTICO       PTSUNNY   47  31  53 SE10      30.67R
FREDERICKSBRG* SUNNY     48  30  49 E12       30.64R
STAFFORD*      SUNNY     47  33  56 SE9G17    30.69R
WARRENTON      SUNNY     46  37  69 E8        30.64R
CULPEPER*      SUNNY     48  28  46 CALM      30.65R
MANASSAS*      SUNNY     46  34  61 SE7       30.65R
LEESBURG*      SUNNY     45  32  61 SE6       30.66R
WINCHESTER     SUNNY     45  28  53 SE10G18   30.62R
$$

VAZ048-049-060>072-079>083-171500-
CENTRAL AND SOUTH CENTRAL VIRGINIA...AND NORTH CENTRAL NORTH CAROLINA

CITY           SKY/WX    TMP DP  RH WIND       PRES   REMARKS
RICHMOND       PTSUNNY   49  31  49 NE12G20   30.61R
CHESTERFIELD*  NOT AVBL
HANOVER        SUNNY     46  30  53 NE12G17   30.63R
TAPPAHANNOCK*  SUNNY     48  28  45 NE9G17    30.62S
CHARLOTTSVILLE SUNNY     45  27  49 E7        30.61S
ORANGE*        SUNNY     45  30  57 E8        30.64S
LOUISA*        SUNNY     46  28  49 NE9G18    30.61R
FARMVILLE*     SUNNY     46  28  49 NE8       30.58S
SOUTH HILL*    SUNNY     46  32  57 NE6       30.63R
ROANOKE RAPIDS SUNNY     48  36  61 NE13      30.57R
RALEIGH        PTSUNNY   46  30  53 NE13      30.56R
$$

VAZ088>098-171500-
SOUTHEAST VIRGINIA

CITY           SKY/WX    TMP DP  RH WIND       PRES   REMARKS
NORFOLK        SUNNY     49  38  65 NE17G23   30.58R
VIRGINIA BEACH PTSUNNY   49  37  63 NE20G28   30.57R
NORFOLK NAVAL  PTSUNNY   51  37  58 NE17      30.60R
WEST POINT*    SUNNY     51  32  47 NE13G20   30.63R
NEWPORT NEWS   SUNNY     51  36  56 NE15G25   30.60R
LANGLEY AFB    MOSUNNY   49  39  67 NE20      30.60R
FORT EUSTIS    SUNNY     50  38  63 NE16G22   30.58R
WILLIAMSBURG*  SUNNY     54  39  58 E8        30.61R
FRANKLIN*      SUNNY     50  37  62 NE13G21   30.58R
WAKEFIELD      SUNNY     51  35  54 VRB3      30.59R
$$

VAZ020-022-025-037-045-171500-
WESTERN AND SOUTHWEST VIRGINIA

CITY           SKY/WX    TMP DP  RH WIND       PRES   REMARKS
STAUNTON*      SUNNY     41  23  49 NE3       30.60S
HOT SPRINGS VA SUNNY     34  18  51 E6        30.51R
LYNCHBURG      SUNNY     48  28  46 E8        30.60R
DANVILLE       SUNNY     45  28  51 E9        30.59R
MARTINSVILLE   SUNNY     43  29  57 NE5       30.60S
ROANOKE        MOSUNNY   42  21  43 E6        30.60R
BLACKSBURG     SUNNY     39  27  60 E6        30.55S
DUBLIN*        SUNNY     39  23  53 E6        30.54R
MARION*        SUNNY     41  23  49 E9        30.51R
HILLSVILLE*    SUNNY     39  16  38 E7        30.52R
RICHLANDS*     MOSUNNY   48  20  33 SE7       30.43R
WISE*          MOSUNNY   45  19  36 S6        30.42S
ABINGDON*      MOSUNNY   46  23  40 E13       30.44R
$$

MDZ021>025-VAZ099-100-171500-
SOUTHERN MARYLAND AND THE DELMARVA PENINSULA

CITY           SKY/WX    TMP DP  RH WIND       PRES   REMARKS
PATUXENT RIVER PTSUNNY   46  32  58 E13       30.65R
BAY BRIDGE APT MOSUNNY   46  32  57 E14       30.67S
LEONARDTOWN    MOSUNNY   45  32  61 E9G17     30.66R
DOVER          CLOUDY    45  34  64 E15G21    30.64R
GEORGETOWN     CLOUDY    46  31  55 E15       30.67R
EASTON         PTSUNNY   46  36  66 E13       30.70R
CAMBRIDGE      MOSUNNY   46  32  57 E10       30.66R
SALISBURY      CLOUDY    46  31  55 E13       30.66R
OCEAN CITY     CLOUDY    46  32  58 E13G21    30.66R
WALLOPS ISLAND PTSUNNY   48  34  58 E17G25    30.65R
ACCOMACK*      MOSUNNY   46  32  57 E16G24    30.62
$$

NCZ012>017-030>032-171500-
EASTERN NORTH CAROLINA

CITY           SKY/WX    TMP DP  RH WIND       PRES   REMARKS
ELIZABETH CITY MOSUNNY   51  39  63 NE21      30.55R
AHOSKIE*       SUNNY     47  37  66 N10       30.57R
EDENTON*       MOSUNNY   51  40  68 NE15      30.54R
CURRITUCK*     MOSUNNY   52  37  57 N21G26    30.56R
KILL DEVIL HLS MOSUNNY   51  40  67 N10G21    30.51R
MANTEO         MOSUNNY   51  40  67 NE21G30   30.52R
CAPE HATTERAS  PTSUNNY   53  45  74 N17G29    30.46R
GOLDSBORO      SUNNY     48  37  64 NE10      30.51R
WASHINGTON     SUNNY     53  43  70 N10G17    30.52R
GREENVILLE     SUNNY     48  36  61 N13       30.53R
NEW BERN       SUNNY     53  41  63 NE10      30.52R
WILMINGTON     SUNNY     53  38  56 N13       30.47R
$$

VAZ048-171500-
ELSEWHERE

CITY           SKY/WX    TMP DP  RH WIND       PRES   REMARKS
HARRISBURG PA  PTSUNNY   45  26  47 SE12      30.67R
BALTIMORE      MOSUNNY   46  26  45 E14       30.66R
ANNAPOLIS      SUNNY     45  33  63 E10       30.67R
ANDREWS AFB    MOSUNNY   47  32  56 E10       30.65R
WILMINGTON DE  MOSUNNY   45  30  55 E13       30.69R
PHILADELPHIA   MOSUNNY   46  29  51 E9        30.71R
WILDWOOD NJ*   PTSUNNY   43  28  56 E16G23    30.69R
ATLANTIC CITY  PTSUNNY   46  30  53 E18G28    30.69R
HENDERSON NC   SUNNY     45  29  54 NE12      30.57R
GREENSBORO     CLOUDY    44  30  57 NE9       30.55R
ROCKY MOUNT      N/A    N/A N/A N/A MISG      30.56R
FAYETTEVILLE   SUNNY     50  32  50 N16G23    30.51R
CHARLOTTE      SUNNY     47  27  45 E8        30.54R
$$

VAZ100-171500-
MARINE

STATION/POSITION TIME  TEMP    WIND        PRES    WAVE   SWELL
                       AIR SEA DIR/SP/G            HT/PER HT/PER
                 (UTC) (F)     (DEG/KT/KT) (MB)    (FT/S) (FT/S)
44066 TX TWR #4  1400   41 45   60/ 21/ 27 1037.6R   9/ 8   3/10
CAPE MAY NJ      1400   43 52  100/ 13/ 18 1038.5R
LEWES DE         1400   43 48   90/ 16/ 20 1038.0R
15NM E FENWICK I 1400   43 45              1037.9R   7/ 6
OCEAN-CITY-INLET 1400   44 44   70/ 10/ 14 1037.8S
WACHAPREAGUE VA  1400   46 50   60/ 16/ 24 1036.5R
THOMAS POINT MD  1400   44 52   90/ 12/ 14 1039.0R
GOOSES REEF MD   1400   44     110/ 12/ 14 1039.6R
COVE POINT MD    1400   44     120/ 12/ 16 1037.9R
SOLOMONS ISLAND  1400      51                N/A
BISHOPS HEAD MD  1400   45 51   80/ 11/ 15 1037.6R
PINEY POINT MD   1400           80/ 12/ 14   N/A
POTOMAC MD       1400   45      90/ 14/ 17 1036.9R
CAMBRIDGE MD     1400   45 55   90/ 16/ 19 1037.8R
LEWISETTA VA     1400   45 51   90/ 15/ 17 1037.2S
RAPPAHANNOCK LGT 1400           50/ 20/ 24 1036.7R
STINGRAY PT      1400   46      70/ 17/ 19 1036.3R
YORK RVR RNG VA  1400   46      60/ 19/ 21 1035.4R
YORKTOWN VA      1400   46 54   50/ 18/ 20 1036.0R
JAMESTOWN VA     1400   46      80/ 10/ 16   N/A
DOMINION TERM VA 1400   48      50/ 11/ 19 1035.8R
KIPTOPEKE VA     1400      53   60/ 18/ 26   N/A
CHES BAY BRIDGE  1400   46 51   30/ 22/ 26 1035.0R
CAPE HENRY VA    1400   45      30/ 25/ 27   N/A
CHESAPEAKE LGHT  1300   45      40/ 29/ 31 1034.2F
WILLOUBY STN VA  1400   46      40/ 18/ 20 1034.9R
S CRANEY ISL VA  1400           10/  9/ 17 1035.7R
CAPE HENRY BUOY  1400      46                N/A     7/ 5   2/11
1ST LANDING BUOY 1400      46                N/A     7/ 6   3/10
64NM E OF VA BCH 1400   51 53   20/ 25/ 31 1032.4R  10/ 7   7/10
DUCK PIER NC     1400   47 48   20/ 24/ 27 1032.7F
44100 DUCK FRF   1400      47                N/A     8/ 7   2/11
44056 DUCK FRF   1400      48                N/A     8/ 7   2/11
OREGON INLET NC  1400   49 49  360/ 17/ 24 1032.5R
HATTERAS NC      1400   51 53   10/ 27/ 30 1031.5R
CAPE LOOKOUT NC  1400   53      20/ 18/ 23 1031.7R
FRYING PAN SHLS  1400   56 63   50/ 23/ 27 1028.9R   9/ 7   2/10
$$



USA.gov is the U.S. government's official web portal to all federal, state and local government web resources and services.